This is the latest recevied weather packets stored in our database for station/object N3WGC-14. If no packets are shown the sender has not sent any weather packets the latest 10 day(s).
| Time | Temp. | Humidity | Pressure | Rain* | Wind** | Luminosity | Snow |
|---|---|---|---|---|---|---|---|
| 1777490382 | 17.78° C | 70% | 1010.7 hPa | 0 mm | - | - | - |
| 1777490082 | 17.78° C | 70% | 1011 hPa | 0 mm | - | - | - |
| 1777489782 | 17.78° C | 70% | 1011.2 hPa | 0 mm | - | - | - |
| 1777489482 | 17.78° C | 69% | 1011.4 hPa | 0 mm | - | - | - |
| 1777489181 | 17.78° C | 69% | 1011.5 hPa | 0 mm | - | - | - |
| 1777488881 | 17.78° C | 69% | 1011.5 hPa | 0 mm | - | - | - |
| 1777488581 | 17.78° C | 67% | 1011.7 hPa | 0 mm | - | - | - |
| 1777488281 | 18.33° C | 67% | 1011.8 hPa | 0 mm | - | - | - |
| 1777487981 | 18.33° C | 66% | 1011.9 hPa | 0 mm | - | - | - |
| 1777487681 | 18.33° C | 66% | 1012 hPa | 0 mm | - | - | - |
| 1777487380 | 18.33° C | 67% | 1011.9 hPa | 0 mm | - | - | - |
| 1777487080 | 18.33° C | 66% | 1012.1 hPa | 0 mm | - | - | - |
| 1777486780 | 17.78° C | 65% | 1012.1 hPa | 0 mm | - | - | - |
| 1777486480 | 17.78° C | 66% | 1012.2 hPa | 0 mm | - | - | - |
| 1777486180 | 17.78° C | 66% | 1012.3 hPa | 0 mm | - | - | - |
| 1777485880 | 17.78° C | 65% | 1012.4 hPa | 0 mm | - | - | - |
| 1777485580 | 17.78° C | 66% | 1012.4 hPa | 0 mm | - | - | - |
| 1777485279 | 17.78° C | 65% | 1012.5 hPa | 0 mm | - | - | - |
| 1777484979 | 17.22° C | 67% | 1012.6 hPa | 0 mm | - | - | - |
| 1777484679 | 17.22° C | 68% | 1012.7 hPa | 0 mm | - | - | - |
| 1777484379 | 16.67° C | 68% | 1012.6 hPa | 0 mm | - | - | - |
| 1777484079 | 16.67° C | 71% | 1012.5 hPa | 0 mm | - | - | - |
| 1777483779 | 16.11° C | 68% | 1012.6 hPa | 0 mm | - | - | - |
| 1777483479 | 16.11° C | 69% | 1012.7 hPa | 0 mm | - | - | - |
| 1777483178 | 16.11° C | 71% | 1012.9 hPa | 0 mm | - | - | - |
* Rain latest hour (hover to see other rain measurements)
** Current wind speed in m/s (hover to see current wind gust speed)